Time,TemperatureF,DewpointF,PressureIn,WindDirection,WindDirectionDegrees,WindSpeedMPH,WindSpeedGustMPH,Humidity,HourlyPrecipIn,Conditions,Clouds,dailyrainin,SoftwareType,DateUTC
2017-07-26 00:02:00,77.6,71.7,30.10,South,176,0.0,0.0,82,0.00,,,0.00,WeatherCatV2.42B15,2017-07-26 05:02:00,
2017-07-26 00:07:00,77.6,71.7,30.10,South,176,0.0,0.0,82,0.00,,,0.00,WeatherCatV2.42B15,2017-07-26 05:07:00,
2017-07-26 00:12:00,77.7,71.8,30.10,South,176,0.0,0.0,82,0.00,,,0.00,WeatherCatV2.42B15,2017-07-26 05:12:00,
2017-07-26 00:17:00,77.6,71.7,30.10,South,176,0.0,0.0,82,0.00,,,0.00,WeatherCatV2.42B15,2017-07-26 05:17:00,
2017-07-26 00:22:00,77.4,71.8,30.10,South,176,0.0,0.0,83,0.00,,,0.00,WeatherCatV2.42B15,2017-07-26 05:22:00,
2017-07-26 00:27:00,77.2,71.3,30.10,South,176,0.0,0.0,82,0.00,,,0.00,WeatherCatV2.42B15,2017-07-26 05:27:00,
2017-07-26 00:32:00,76.9,71.3,30.10,South,176,0.0,1.0,83,0.00,,,0.00,WeatherCatV2.42B15,2017-07-26 05:32:00,
2017-07-26 00:37:00,76.7,71.1,30.10,South,176,0.0,0.0,83,0.00,,,0.00,WeatherCatV2.42B15,2017-07-26 05:37:00,
2017-07-26 00:42:00,76.5,71.3,30.10,South,176,0.0,0.0,84,0.00,,,0.00,WeatherCatV2.42B15,2017-07-26 05:42:00,
2017-07-26 00:47:00,76.3,71.1,30.10,South,176,0.0,0.0,84,0.00,,,0.00,WeatherCatV2.42B15,2017-07-26 05:47:00,
2017-07-26 00:52:00,76.1,70.9,30.10,South,176,0.0,0.0,84,0.00,,,0.00,WeatherCatV2.42B15,2017-07-26 05:52:00,
2017-07-26 00:57:00,76.0,71.2,30.10,South,176,0.0,0.0,85,0.00,,,0.00,WeatherCatV2.42B15,2017-07-26 05:57:00,
2017-07-26 01:02:00,76.1,71.2,30.10,South,176,0.0,0.0,85,0.00,,,0.00,WeatherCatV2.42B15,2017-07-26 06:02:00,
2017-07-26 01:07:00,76.2,71.3,30.10,South,176,0.0,0.0,85,0.00,,,0.00,WeatherCatV2.42B15,2017-07-26 06:07:00,
2017-07-26 01:12:00,76.2,71.3,30.11,South,176,0.0,0.0,85,0.00,,,0.00,WeatherCatV2.42B15,2017-07-26 06:12:00,
2017-07-26 01:17:00,76.2,71.7,30.10,South,176,0.0,0.0,86,0.00,,,0.00,WeatherCatV2.42B15,2017-07-26 06:17:00,
2017-07-26 01:22:00,76.2,71.7,30.10,South,176,0.0,0.0,86,0.00,,,0.00,WeatherCatV2.42B15,2017-07-26 06:22:00,
2017-07-26 01:27:00,76.2,71.7,30.11,South,176,0.0,0.0,86,0.00,,,0.00,WeatherCatV2.42B15,2017-07-26 06:27:00,
2017-07-26 01:32:00,76.1,71.6,30.11,South,176,0.0,0.0,86,0.00,,,0.00,WeatherCatV2.42B15,2017-07-26 06:32:00,
2017-07-26 01:37:00,76.0,71.5,30.11,South,176,0.0,0.0,86,0.00,,,0.00,WeatherCatV2.42B15,2017-07-26 06:37:00,
2017-07-26 01:42:00,75.8,71.3,30.11,South,176,0.0,0.0,86,0.00,,,0.00,WeatherCatV2.42B15,2017-07-26 06:42:00,
2017-07-26 01:47:00,75.7,71.5,30.11,South,176,0.0,0.0,87,0.00,,,0.00,WeatherCatV2.42B15,2017-07-26 06:47:00,
2017-07-26 01:52:00,75.6,71.4,30.11,South,176,0.0,0.0,87,0.00,,,0.00,WeatherCatV2.42B15,2017-07-26 06:52:00,
2017-07-26 01:57:00,75.5,71.3,30.11,South,176,0.0,0.0,87,0.00,,,0.00,WeatherCatV2.42B15,2017-07-26 06:57:00,
2017-07-26 02:02:00,75.5,71.3,30.11,South,176,0.0,0.0,87,0.00,,,0.00,WeatherCatV2.42B15,2017-07-26 07:02:00,
2017-07-26 02:07:00,75.4,71.2,30.11,South,176,0.0,0.0,87,0.00,,,0.00,WeatherCatV2.42B15,2017-07-26 07:07:00,
2017-07-26 02:12:00,75.4,71.2,30.11,South,176,0.0,1.0,87,0.00,,,0.00,WeatherCatV2.42B15,2017-07-26 07:12:00,
2017-07-26 02:17:00,75.4,71.6,30.11,South,176,0.0,0.0,88,0.00,,,0.00,WeatherCatV2.42B15,2017-07-26 07:17:00,
2017-07-26 02:22:00,75.5,71.7,30.11,South,176,0.0,0.0,88,0.00,,,0.00,WeatherCatV2.42B15,2017-07-26 07:22:00,
2017-07-26 02:27:00,75.5,71.7,30.11,South,176,0.0,0.0,88,0.00,,,0.00,WeatherCatV2.42B15,2017-07-26 07:27:00,
2017-07-26 02:32:00,75.5,71.7,30.11,South,175,1.0,4.0,88,0.00,,,0.00,WeatherCatV2.42B15,2017-07-26 07:32:00,
2017-07-26 02:37:00,75.4,71.6,30.10,South,175,2.0,3.0,88,0.00,,,0.00,WeatherCatV2.42B15,2017-07-26 07:37:00,
2017-07-26 02:42:00,75.4,71.6,30.10,South,175,2.0,3.0,88,0.00,,,0.00,WeatherCatV2.42B15,2017-07-26 07:42:00,
2017-07-26 02:47:00,75.5,71.7,30.10,South,175,0.0,0.0,88,0.00,,,0.00,WeatherCatV2.42B15,2017-07-26 07:47:00,
2017-07-26 02:52:00,75.4,71.6,30.10,South,175,0.0,0.0,88,0.00,,,0.00,WeatherCatV2.42B15,2017-07-26 07:52:00,
2017-07-26 02:57:00,75.3,71.5,30.10,South,175,0.0,0.0,88,0.00,,,0.00,WeatherCatV2.42B15,2017-07-26 07:57:00,
2017-07-26 03:02:00,75.3,71.5,30.10,South,176,0.0,0.0,88,0.00,,,0.00,WeatherCatV2.42B15,2017-07-26 08:02:00,
2017-07-26 03:07:00,75.3,71.5,30.10,SSE,164,0.0,1.0,88,0.00,,,0.00,WeatherCatV2.42B15,2017-07-26 08:07:00,
2017-07-26 03:12:00,75.3,71.5,30.10,SSE,163,0.0,0.0,88,0.00,,,0.00,WeatherCatV2.42B15,2017-07-26 08:12:00,
2017-07-26 03:17:00,75.2,71.4,30.10,SSE,165,0.0,0.0,88,0.00,,,0.00,WeatherCatV2.42B15,2017-07-26 08:17:00,
2017-07-26 03:22:00,75.2,71.4,30.10,SSE,165,0.0,0.0,88,0.00,,,0.00,WeatherCatV2.42B15,2017-07-26 08:22:00,
2017-07-26 03:27:00,75.1,71.3,30.09,SSE,165,0.0,0.0,88,0.00,,,0.00,WeatherCatV2.42B15,2017-07-26 08:27:00,
2017-07-26 03:32:00,75.1,71.3,30.09,SSE,166,0.0,0.0,88,0.00,,,0.00,WeatherCatV2.42B15,2017-07-26 08:32:00,
2017-07-26 03:37:00,75.0,71.2,30.09,SSE,166,1.0,1.0,88,0.00,,,0.00,WeatherCatV2.42B15,2017-07-26 08:37:00,
2017-07-26 03:42:00,74.9,71.1,30.09,SSE,166,1.0,2.0,88,0.00,,,0.00,WeatherCatV2.42B15,2017-07-26 08:42:00,
2017-07-26 03:47:00,74.8,71.3,30.09,South,169,2.0,3.0,89,0.00,,,0.00,WeatherCatV2.42B15,2017-07-26 08:47:00,
2017-07-26 03:52:00,74.7,71.2,30.09,South,169,1.0,2.0,89,0.00,,,0.00,WeatherCatV2.42B15,2017-07-26 08:52:00,
2017-07-26 03:57:00,74.7,71.2,30.09,South,169,0.0,2.0,89,0.00,,,0.00,WeatherCatV2.42B15,2017-07-26 08:57:00,
2017-07-26 04:02:00,74.7,71.2,30.09,South,169,1.0,2.0,89,0.00,,,0.00,WeatherCatV2.42B15,2017-07-26 09:02:00,
2017-07-26 04:07:00,74.7,71.2,30.09,South,187,2.0,2.0,89,0.00,,,0.00,WeatherCatV2.42B15,2017-07-26 09:07:00,
2017-07-26 04:12:00,74.7,71.2,30.09,South,175,0.0,0.0,89,0.00,,,0.00,WeatherCatV2.42B15,2017-07-26 09:12:00,
2017-07-26 04:17:00,74.6,71.1,30.09,South,175,0.0,0.0,89,0.00,,,0.00,WeatherCatV2.42B15,2017-07-26 09:17:00,
2017-07-26 04:22:00,74.5,71.0,30.09,South,175,0.0,0.0,89,0.00,,,0.00,WeatherCatV2.42B15,2017-07-26 09:22:00,
2017-07-26 04:27:00,74.4,70.9,30.09,South,175,0.0,0.0,89,0.00,,,0.00,WeatherCatV2.42B15,2017-07-26 09:27:00,
2017-07-26 04:32:00,74.2,70.7,30.09,South,175,0.0,0.0,89,0.00,,,0.00,WeatherCatV2.42B15,2017-07-26 09:32:00,
2017-07-26 04:37:00,74.0,70.5,30.10,South,175,0.0,0.0,89,0.00,,,0.00,WeatherCatV2.42B15,2017-07-26 09:37:00,
2017-07-26 04:42:00,73.9,70.4,30.10,South,175,0.0,0.0,89,0.00,,,0.00,WeatherCatV2.42B15,2017-07-26 09:42:00,
2017-07-26 04:47:00,73.8,70.7,30.10,South,175,0.0,0.0,90,0.00,,,0.00,WeatherCatV2.42B15,2017-07-26 09:47:00,
2017-07-26 04:52:00,73.7,70.6,30.09,South,175,0.0,0.0,90,0.00,,,0.00,WeatherCatV2.42B15,2017-07-26 09:52:00,
2017-07-26 04:57:00,73.5,70.4,30.09,South,175,0.0,0.0,90,0.00,,,0.00,WeatherCatV2.42B15,2017-07-26 09:57:00,
2017-07-26 05:02:00,73.3,70.2,30.10,South,175,0.0,0.0,90,0.00,,,0.00,WeatherCatV2.42B15,2017-07-26 10:02:00,
2017-07-26 05:07:00,73.3,70.2,30.10,South,175,0.0,0.0,90,0.00,,,0.00,WeatherCatV2.42B15,2017-07-26 10:07:00,
2017-07-26 05:12:00,73.2,70.1,30.10,South,175,0.0,0.0,90,0.00,,,0.00,WeatherCatV2.42B15,2017-07-26 10:12:00,
2017-07-26 05:17:00,73.2,70.1,30.10,South,175,0.0,0.0,90,0.00,,,0.00,WeatherCatV2.42B15,2017-07-26 10:17:00,
2017-07-26 05:22:00,73.3,70.5,30.09,South,175,0.0,0.0,91,0.00,,,0.00,WeatherCatV2.42B15,2017-07-26 10:22:00,
2017-07-26 05:27:00,73.3,70.2,30.09,South,175,0.0,0.0,90,0.00,,,0.00,WeatherCatV2.42B15,2017-07-26 10:27:00,
2017-07-26 05:32:00,73.2,70.1,30.09,South,175,0.0,0.0,90,0.00,,,0.00,WeatherCatV2.42B15,2017-07-26 10:32:00,
2017-07-26 05:37:00,73.2,70.4,30.09,South,175,0.0,0.0,91,0.00,,,0.00,WeatherCatV2.42B15,2017-07-26 10:37:00,
2017-07-26 05:42:00,73.3,70.5,30.10,South,175,0.0,0.0,91,0.00,,,0.00,WeatherCatV2.42B15,2017-07-26 10:42:00,
2017-07-26 05:47:00,73.4,70.6,30.10,South,175,0.0,0.0,91,0.00,,,0.00,WeatherCatV2.42B15,2017-07-26 10:47:00,
2017-07-26 05:52:00,73.5,70.7,30.10,South,175,0.0,0.0,91,0.00,,,0.00,WeatherCatV2.42B15,2017-07-26 10:52:00,
2017-07-26 05:57:00,73.6,70.8,30.10,South,175,0.0,2.0,91,0.00,,,0.00,WeatherCatV2.42B15,2017-07-26 10:57:00,
2017-07-26 06:02:00,73.7,70.9,30.10,South,175,0.0,0.0,91,0.00,,,0.00,WeatherCatV2.42B15,2017-07-26 11:02:00,
2017-07-26 06:07:00,73.7,70.9,30.09,South,175,0.0,0.0,91,0.00,,,0.00,WeatherCatV2.42B15,2017-07-26 11:07:00,
2017-07-26 06:12:00,73.7,70.9,30.10,South,175,0.0,2.0,91,0.00,,,0.00,WeatherCatV2.42B15,2017-07-26 11:12:00,
2017-07-26 06:17:00,73.6,70.8,30.10,South,175,0.0,0.0,91,0.00,,,0.00,WeatherCatV2.42B15,2017-07-26 11:17:00,
2017-07-26 06:22:00,73.7,70.9,30.10,South,175,0.0,2.0,91,0.00,,,0.00,WeatherCatV2.42B15,2017-07-26 11:22:00,
2017-07-26 06:27:00,73.7,70.9,30.10,South,175,0.0,0.0,91,0.00,,,0.00,WeatherCatV2.42B15,2017-07-26 11:27:00,
2017-07-26 06:32:00,73.7,70.6,30.10,South,175,0.0,0.0,90,0.00,,,0.00,WeatherCatV2.42B15,2017-07-26 11:32:00,
2017-07-26 06:37:00,73.7,70.9,30.11,South,175,0.0,0.0,91,0.00,,,0.00,WeatherCatV2.42B15,2017-07-26 11:37:00,
2017-07-26 06:42:00,73.7,70.9,30.11,South,175,0.0,0.0,91,0.00,,,0.00,WeatherCatV2.42B15,2017-07-26 11:42:00,
2017-07-26 06:47:00,73.7,70.9,30.11,South,175,0.0,0.0,91,0.00,,,0.00,WeatherCatV2.42B15,2017-07-26 11:47:00,
2017-07-26 06:52:00,73.7,70.9,30.12,South,175,0.0,0.0,91,0.00,,,0.00,WeatherCatV2.42B15,2017-07-26 11:52:00,
2017-07-26 06:57:00,73.8,71.0,30.11,South,175,1.0,1.0,91,0.00,,,0.00,WeatherCatV2.42B15,2017-07-26 11:57:00,
2017-07-26 07:02:00,73.9,71.1,30.11,SSE,168,1.0,2.0,91,0.00,,,0.00,WeatherCatV2.42B15,2017-07-26 12:02:00,
2017-07-26 07:07:00,74.1,71.3,30.11,SSE,163,1.0,3.0,91,0.00,,,0.00,WeatherCatV2.42B15,2017-07-26 12:07:00,
2017-07-26 07:12:00,74.3,71.2,30.10,South,173,2.0,3.0,90,0.00,,,0.00,WeatherCatV2.42B15,2017-07-26 12:12:00,
2017-07-26 07:17:00,74.6,71.5,30.10,SSE,168,2.0,4.0,90,0.00,,,0.00,WeatherCatV2.42B15,2017-07-26 12:17:00,
2017-07-26 07:22:00,74.8,71.7,30.10,SSE,168,2.0,4.0,90,0.00,,,0.00,WeatherCatV2.42B15,2017-07-26 12:22:00,
2017-07-26 07:27:00,75.1,72.0,30.10,SSW,192,1.0,2.0,90,0.00,,,0.00,WeatherCatV2.42B15,2017-07-26 12:27:00,
2017-07-26 07:32:00,75.3,71.8,30.10,South,171,2.0,4.0,89,0.00,,,0.00,WeatherCatV2.42B15,2017-07-26 12:32:00,
2017-07-26 07:37:00,75.5,72.0,30.11,South,169,3.0,4.0,89,0.00,,,0.00,WeatherCatV2.42B15,2017-07-26 12:37:00,
2017-07-26 07:42:00,75.7,72.2,30.11,SSW,195,2.0,5.0,89,0.00,,,0.00,WeatherCatV2.42B15,2017-07-26 12:42:00,
2017-07-26 07:47:00,76.1,72.3,30.10,South,183,3.0,5.0,88,0.00,,,0.00,WeatherCatV2.42B15,2017-07-26 12:47:00,
2017-07-26 07:52:00,76.4,72.6,30.10,South,178,2.0,4.0,88,0.00,,,0.00,WeatherCatV2.42B15,2017-07-26 12:52:00,
2017-07-26 07:57:00,76.8,72.6,30.10,South,169,1.0,5.0,87,0.00,,,0.00,WeatherCatV2.42B15,2017-07-26 12:57:00,
2017-07-26 08:02:00,77.2,72.7,30.09,South,183,4.0,5.0,86,0.00,,,0.00,WeatherCatV2.42B15,2017-07-26 13:02:00,
2017-07-26 08:07:00,77.4,72.9,30.09,SSW,209,2.0,5.0,86,0.00,,,0.00,WeatherCatV2.42B15,2017-07-26 13:07:00,
2017-07-26 08:12:00,77.8,72.9,30.09,SSW,200,4.0,6.0,85,0.00,,,0.00,WeatherCatV2.42B15,2017-07-26 13:12:00,
2017-07-26 08:22:00,78.7,73.1,30.09,SSW,203,6.0,7.0,83,0.00,,,0.00,WeatherCatV2.42B15,2017-07-26 13:22:00,
2017-07-26 08:27:00,79.1,73.5,30.10,South,188,5.0,5.0,83,0.00,,,0.00,WeatherCatV2.42B15,2017-07-26 13:27:00,
2017-07-26 08:32:00,79.5,73.5,30.10,South,172,6.0,7.0,82,0.00,,,0.00,WeatherCatV2.42B15,2017-07-26 13:32:00,
2017-07-26 08:37:00,79.8,73.1,30.10,SSW,196,5.0,6.0,80,0.00,,,0.00,WeatherCatV2.42B15,2017-07-26 13:37:00,
2017-07-26 08:42:00,80.2,73.4,30.10,SSW,199,5.0,8.0,80,0.00,,,0.00,WeatherCatV2.42B15,2017-07-26 13:42:00,
2017-07-26 08:47:00,80.7,73.9,30.09,South,190,4.0,6.0,80,0.00,,,0.00,WeatherCatV2.42B15,2017-07-26 13:47:00,
2017-07-26 08:52:00,81.0,73.5,30.09,SSW,192,4.0,7.0,78,0.00,,,0.00,WeatherCatV2.42B15,2017-07-26 13:52:00,
2017-07-26 08:57:00,81.3,73.8,30.09,SW,215,3.0,6.0,78,0.00,,,0.00,WeatherCatV2.42B15,2017-07-26 13:57:00,
2017-07-26 09:02:00,81.4,73.9,30.09,SSW,197,5.0,8.0,78,0.00,,,0.00,WeatherCatV2.42B15,2017-07-26 14:02:00,
2017-07-26 09:07:00,81.5,74.0,30.09,SSW,196,6.0,7.0,78,0.00,,,0.00,WeatherCatV2.42B15,2017-07-26 14:07:00,
2017-07-26 09:12:00,81.7,73.8,30.10,SSW,193,6.0,7.0,77,0.00,,,0.00,WeatherCatV2.42B15,2017-07-26 14:12:00,
2017-07-26 09:17:00,81.8,73.9,30.10,SSW,201,4.0,5.0,77,0.00,,,0.00,WeatherCatV2.42B15,2017-07-26 14:17:00,
2017-07-26 09:22:00,82.1,74.5,30.10,SSW,196,7.0,7.0,78,0.00,,,0.00,WeatherCatV2.42B15,2017-07-26 14:22:00,
2017-07-26 09:27:00,82.3,73.9,30.10,South,189,5.0,7.0,76,0.00,,,0.00,WeatherCatV2.42B15,2017-07-26 14:27:00,
2017-07-26 09:32:00,82.5,74.2,30.10,SW,216,5.0,7.0,76,0.00,,,0.00,WeatherCatV2.42B15,2017-07-26 14:32:00,
2017-07-26 09:37:00,82.8,74.4,30.11,South,175,5.0,7.0,76,0.00,,,0.00,WeatherCatV2.42B15,2017-07-26 14:37:00,
2017-07-26 09:42:00,83.1,73.9,30.11,SW,219,5.0,7.0,74,0.00,,,0.00,WeatherCatV2.42B15,2017-07-26 14:42:00,
2017-07-26 09:47:00,83.3,74.1,30.11,SSW,192,3.0,6.0,74,0.00,,,0.00,WeatherCatV2.42B15,2017-07-26 14:47:00,
2017-07-26 09:52:00,83.5,73.9,30.11,SSW,196,5.0,8.0,73,0.00,,,0.00,WeatherCatV2.42B15,2017-07-26 14:52:00,
2017-07-26 09:57:00,85.3,75.1,30.02,South,180,7.5,-999.0,71,0.00,,,0.00,BloomSky,2017-07-26 14:57:00,
2017-07-26 10:02:00,83.8,74.6,30.10,SSW,202,5.0,6.0,74,0.00,,,0.00,WeatherCatV2.42B15,2017-07-26 15:02:00,
2017-07-26 10:07:00,84.0,74.4,30.11,SSW,211,5.0,7.0,73,0.00,,,0.00,WeatherCatV2.42B15,2017-07-26 15:07:00,
2017-07-26 10:12:00,83.9,73.9,30.11,SSW,207,5.0,6.0,72,0.00,,,0.00,WeatherCatV2.42B15,2017-07-26 15:12:00,
2017-07-26 10:17:00,83.9,73.9,30.11,SW,219,5.0,7.0,72,0.00,,,0.00,WeatherCatV2.42B15,2017-07-26 15:17:00,
2017-07-26 10:22:00,84.1,74.5,30.11,SSW,196,4.0,7.0,73,0.00,,,0.00,WeatherCatV2.42B15,2017-07-26 15:22:00,
2017-07-26 10:27:00,84.5,74.0,30.11,SSW,202,5.0,9.0,71,0.00,,,0.00,WeatherCatV2.42B15,2017-07-26 15:27:00,
2017-07-26 10:32:00,84.6,74.1,30.11,SW,218,5.0,7.0,71,0.00,,,0.00,WeatherCatV2.42B15,2017-07-26 15:32:00,
2017-07-26 10:37:00,84.8,74.3,30.11,SSW,202,5.0,7.0,71,0.00,,,0.00,WeatherCatV2.42B15,2017-07-26 15:37:00,
2017-07-26 10:42:00,85.0,74.5,30.11,SW,223,5.0,8.0,71,0.00,,,0.00,WeatherCatV2.42B15,2017-07-26 15:42:00,
2017-07-26 10:47:00,85.1,74.6,30.11,SW,223,5.0,8.0,71,0.00,,,0.00,WeatherCatV2.42B15,2017-07-26 15:47:00,
2017-07-26 10:52:00,85.3,74.8,30.11,SSW,194,4.0,7.0,71,0.00,,,0.00,WeatherCatV2.42B15,2017-07-26 15:52:00,
2017-07-26 10:57:00,85.6,74.7,30.11,SW,215,4.0,6.0,70,0.00,,,0.00,WeatherCatV2.42B15,2017-07-26 15:57:00,
2017-07-26 11:02:00,86.1,75.1,30.11,South,191,3.0,5.0,70,0.00,,,0.00,WeatherCatV2.42B15,2017-07-26 16:02:00,
2017-07-26 11:07:00,86.6,74.8,30.11,WSW,249,4.0,8.0,68,0.00,,,0.00,WeatherCatV2.42B15,2017-07-26 16:07:00,
2017-07-26 11:12:00,87.2,75.8,30.11,SSW,192,4.0,7.0,69,0.00,,,0.00,WeatherCatV2.42B15,2017-07-26 16:12:00,
2017-07-26 11:17:00,87.3,75.4,30.11,SSW,212,4.0,7.0,68,0.00,,,0.00,WeatherCatV2.42B15,2017-07-26 16:17:00,
2017-07-26 11:22:00,87.0,74.7,30.11,SSW,212,2.0,6.0,67,0.00,,,0.00,WeatherCatV2.42B15,2017-07-26 16:22:00,
2017-07-26 11:27:00,87.1,75.2,30.11,SSW,204,1.0,5.0,68,0.00,,,0.00,WeatherCatV2.42B15,2017-07-26 16:27:00,
2017-07-26 11:32:00,87.5,75.2,30.11,SW,219,6.0,8.0,67,0.00,,,0.00,WeatherCatV2.42B15,2017-07-26 16:32:00,
2017-07-26 11:37:00,87.7,74.4,30.10,SW,215,4.0,5.0,65,0.00,,,0.00,WeatherCatV2.42B15,2017-07-26 16:37:00,
2017-07-26 11:42:00,87.4,74.6,30.10,SW,220,4.0,6.0,66,0.00,,,0.00,WeatherCatV2.42B15,2017-07-26 16:42:00,
2017-07-26 11:47:00,87.5,75.2,30.10,WSW,240,2.0,5.0,67,0.00,,,0.00,WeatherCatV2.42B15,2017-07-26 16:47:00,
2017-07-26 11:52:00,88.3,75.5,30.10,SSW,193,4.0,7.0,66,0.00,,,0.00,WeatherCatV2.42B15,2017-07-26 16:52:00,
2017-07-26 11:57:00,88.9,75.1,30.10,SSW,196,5.0,6.0,64,0.00,,,0.00,WeatherCatV2.42B15,2017-07-26 16:57:00,
2017-07-26 12:02:00,89.7,74.9,30.09,SSW,211,4.0,7.0,62,0.00,,,0.00,WeatherCatV2.42B15,2017-07-26 17:02:00,
2017-07-26 12:07:00,89.9,75.6,30.09,SSW,198,6.0,9.0,63,0.00,,,0.00,WeatherCatV2.42B15,2017-07-26 17:07:00,
2017-07-26 12:12:00,89.9,74.6,30.09,SW,217,3.0,6.0,61,0.00,,,0.00,WeatherCatV2.42B15,2017-07-26 17:12:00,
2017-07-26 12:17:00,89.8,75.0,30.09,SSW,200,5.0,7.0,62,0.00,,,0.00,WeatherCatV2.42B15,2017-07-26 17:17:00,
2017-07-26 12:22:00,89.7,74.9,30.09,SSW,205,3.0,7.0,62,0.00,,,0.00,WeatherCatV2.42B15,2017-07-26 17:22:00,
2017-07-26 12:27:00,89.4,73.7,30.09,SW,227,3.0,7.0,60,0.00,,,0.00,WeatherCatV2.42B15,2017-07-26 17:27:00,
2017-07-26 12:32:00,89.2,73.9,30.09,SSW,196,6.0,8.0,61,0.00,,,0.00,WeatherCatV2.42B15,2017-07-26 17:32:00,